Location: Lac Lasalle
(46.0398°N, 74.1576°W)
Time: 19:16:45
(UTC-05:00)

ISS - Pass Details

Date: 26 October 2019
Orbit: 412 x 421 km, 51.6° (Epoch: 12 November)

Event Time Altitude Azimuth Distance (km) Brightness Sun altitude
Exits shadow 05:21:06 12° 164° (SSE) 1,357 -1.1 -22.7°
Maximum altitude 05:22:34 16° 135° (SE) 1,204 -1.0 -22.4°
Drops below altitude 10° 05:24:40 10° 96° (E) 1,503 0.1 -22.0°
Sets 05:27:23 0° 73° (ENE) 2,381 1.5 -21.6°
